Location: Clermont
(50.2608°N, 4.3172°E)
Time: 01:32:46
(UTC+00:00)

Terra - Pass Details

Date: 13 August 2020
Orbit: 701 x 703 km, 98.2° (Epoch: 25 September)

Event Time Altitude Azimuth Distance (km) Brightness Sun altitude
Exits shadow 22:18:52 28° 226° (SW) 1,300 3.0 -22.6°
Maximum altitude 22:20:24 35° 264° (W) 1,125 2.9 -22.7°
Drops below altitude 10° 22:24:48 10° 330° (NNW) 2,184 5.5 -22.9°
Sets 22:27:14 0° 340° (NNW) 3,107 6.6 -23.1°
